,,,PA_Meas_PMT16A,,PR_Meas_QMR101_102,,RH_Meas_QMH101,,SR_Meas_QMS101,,TA_Meas_QMH101,,GenWind,,GenWind,
date,time,status,PA,status,PR,status,RH,status,SR,status,TA,status,DirAvg,status,SpdAvg,
2012-05-04, 00:00:04,VALID,1007.98,VALID,0,VALID,104,VALID,0.112112,VALID,23.4,VALID,34,VALID,0,
2012-05-04, 00:01:04,VALID,1007.96,VALID,0,VALID,104,VALID,0,VALID,23.3805,VALID,34,VALID,0,
2012-05-04, 00:02:04,VALID,1007.97,VALID,0,VALID,104,VALID,0,VALID,23.4017,VALID,34,VALID,0.220313,
2012-05-04, 00:03:04,VALID,1007.96,VALID,0,VALID,104,VALID,0.112112,VALID,23.3805,VALID,34,VALID,0.270312,
2012-05-04, 00:04:04,VALID,1007.94,VALID,0,VALID,104,VALID,0,VALID,23.4017,VALID,34,VALID,0.0617188,
2012-05-04, 00:05:04,VALID,1007.91,VALID,0,VALID,104,VALID,0.112112,VALID,23.4,VALID,34,VALID,0.125,
2012-05-04, 00:06:04,VALID,1007.9,VALID,0,VALID,104,VALID,0,VALID,23.3805,VALID,34,VALID,0.193359,
2012-05-04, 00:07:04,VALID,1007.88,VALID,0,VALID,104,VALID,0.112112,VALID,23.3805,VALID,34,VALID,0,
2012-05-04, 00:08:04,VALID,1007.87,VALID,0,VALID,104,VALID,0.112112,VALID,23.3805,VALID,34,VALID,0,
2012-05-04, 00:09:04,VALID,1007.88,VALID,0,VALID,104,VALID,0,VALID,23.361,VALID,34,VALID,0,
2012-05-04, 00:10:04,VALID,1007.84,VALID,0,VALID,104,VALID,0.112112,VALID,23.3823,VALID,34,VALID,0,
2012-05-04, 00:11:04,VALID,1007.83,VALID,0,VALID,104,VALID,0,VALID,23.3823,VALID,34,VALID,0,
2012-05-04, 00:12:04,VALID,1007.82,VALID,0,VALID,104,VALID,0.112112,VALID,23.3823,VALID,34,VALID,0.003125,
2012-05-04, 00:13:04,VALID,1007.82,VALID,0,VALID,104,VALID,0.112112,VALID,23.361,VALID,34,VALID,0.297656,
2012-05-04, 00:14:04,VALID,1007.8,VALID,0,VALID,104,VALID,0,VALID,23.3823,VALID,34,VALID,0.186719,
2012-05-04, 00:15:04,VALID,1007.82,VALID,0,VALID,104,VALID,0,VALID,23.3823,VALID,34,VALID,0.189063,
2012-05-04, 00:16:04,VALID,1007.83,VALID,0,VALID,104,VALID,0,VALID,23.3805,VALID,100,VALID,0.864062,
2012-05-04, 00:17:04,VALID,1007.82,VALID,0,VALID,104,VALID,0,VALID,23.4407,VALID,97,VALID,0.339844,
2012-05-04, 00:18:04,VALID,1007.81,VALID,0,VALID,104,VALID,0,VALID,23.4407,VALID,97,VALID,0.577734,
2012-05-04, 00:19:04,VALID,1007.78,VALID,0,VALID,104,VALID,0.112112,VALID,23.4602,VALID,71,VALID,0.739062,
2012-05-04, 00:20:04,VALID,1007.77,VALID,0,VALID,104,VALID,0,VALID,23.4389,VALID,71,VALID,0.478906,
2012-05-04, 00:21:04,VALID,1007.77,VALID,0,VALID,104,VALID,0.112112,VALID,23.4797,VALID,67,VALID,0.725391,
2012-05-04, 00:22:04,VALID,1007.75,VALID,0,VALID,104,VALID,0.112112,VALID,23.4797,VALID,67,VALID,0.888672,
2012-05-04, 00:23:04,VALID,1007.73,VALID,0,VALID,104,VALID,0.112112,VALID,23.4797,VALID,67,VALID,0.733203,
2012-05-04, 00:24:04,VALID,1007.74,VALID,0,VALID,104,VALID,0,VALID,23.4584,VALID,64,VALID,0.58125,
2012-05-04, 00:25:04,VALID,1007.71,VALID,0,VALID,104,VALID,0,VALID,23.4797,VALID,64,VALID,0.357812,
2012-05-04, 00:26:04,VALID,1007.68,VALID,0,VALID,104,VALID,0.112112,VALID,23.4584,VALID,64,VALID,0.407031,
2012-05-04, 00:27:04,VALID,1007.69,VALID,0,VALID,104,VALID,0,VALID,23.4992,VALID,84,VALID,0.464844,
2012-05-04, 00:28:04,VALID,1007.67,VALID,0,VALID,104,VALID,0.112112,VALID,23.4584,VALID,75,VALID,0.643359,
2012-05-04, 00:29:04,VALID,1007.67,VALID,0,VALID,104,VALID,0,VALID,23.4797,VALID,54,VALID,0.423047,
2012-05-04, 00:30:04,VALID,1007.66,VALID,0,VALID,104,VALID,0,VALID,23.4797,VALID,54,VALID,0.375391,
2012-05-04, 00:31:04,VALID,1007.68,VALID,0,VALID,104,VALID,0.112112,VALID,23.4584,VALID,54,VALID,0.158594,
2012-05-04, 00:32:04,VALID,1007.67,VALID,0,VALID,104,VALID,0,VALID,23.4797,VALID,54,VALID,0.353125,
2012-05-04, 00:33:04,VALID,1007.69,VALID,0,VALID,104,VALID,0.112112,VALID,23.4584,VALID,54,VALID,0.123047,
2012-05-04, 00:34:04,VALID,1007.72,VALID,0,VALID,104,VALID,0.112112,VALID,23.4584,VALID,54,VALID,0.00117188,
2012-05-04, 00:35:04,VALID,1007.72,VALID,0,VALID,104,VALID,0,VALID,23.4389,VALID,70,VALID,0.640234,
2012-05-04, 00:36:04,VALID,1007.73,VALID,0,VALID,104,VALID,0,VALID,23.4797,VALID,90,VALID,0.86875,
2012-05-04, 00:37:04,VALID,1007.73,VALID,0,VALID,104,VALID,0.112112,VALID,23.4584,VALID,90,VALID,0.651953,
2012-05-04, 00:38:04,VALID,1007.73,VALID,0,VALID,104,VALID,0,VALID,23.4797,VALID,90,VALID,0.379687,
2012-05-04, 00:39:04,VALID,1007.75,VALID,0,VALID,104,VALID,0,VALID,23.4584,VALID,90,VALID,0.477734,
2012-05-04, 00:40:04,VALID,1007.74,VALID,0,VALID,104,VALID,0,VALID,23.4797,VALID,129,VALID,0.742969,
2012-05-04, 00:41:04,VALID,1007.76,VALID,0,VALID,104,VALID,0.112112,VALID,23.4797,VALID,130,VALID,0.708594,
2012-05-04, 00:42:04,VALID,1007.77,VALID,0,VALID,104,VALID,0.112112,VALID,23.4389,VALID,133,VALID,0.566406,
2012-05-04, 00:43:04,VALID,1007.76,VALID,0,VALID,104,VALID,0.112112,VALID,23.4602,VALID,141,VALID,0.789844,
2012-05-04, 00:44:04,VALID,1007.81,VALID,0,VALID,104,VALID,0.112112,VALID,23.4194,VALID,141,VALID,0.7125,
2012-05-04, 00:45:04,VALID,1007.79,VALID,0,VALID,104,VALID,0,VALID,23.4194,VALID,141,VALID,0.616797,
2012-05-04, 00:46:04,VALID,1007.81,VALID,0,VALID,104,VALID,0,VALID,23.4194,VALID,149,VALID,0.665625,
2012-05-04, 00:47:04,VALID,1007.83,VALID,0,VALID,104,VALID,0.112112,VALID,23.4194,VALID,164,VALID,0.567578,
2012-05-04, 00:48:04,VALID,1007.82,VALID,0,VALID,104,VALID,0.112112,VALID,23.4,VALID,165,VALID,0.707422,
2012-05-04, 00:49:04,VALID,1007.82,VALID,0,VALID,104,VALID,0,VALID,23.4212,VALID,173,VALID,0.809375,
2012-05-04, 00:50:04,VALID,1007.83,VALID,0,VALID,104,VALID,0.112112,VALID,23.4017,VALID,151,VALID,0.771484,
2012-05-04, 00:51:04,VALID,1007.82,VALID,0,VALID,104,VALID,0.112112,VALID,23.3805,VALID,153,VALID,1.14219,
2012-05-04, 00:52:04,VALID,1007.8,VALID,0,VALID,104,VALID,0.112112,VALID,23.3805,VALID,129,VALID,0.487109,
2012-05-04, 00:53:04,VALID,1007.81,VALID,0,VALID,104,VALID,0,VALID,23.4017,VALID,139,VALID,0.751172,
2012-05-04, 00:54:04,VALID,1007.85,VALID,0,VALID,104,VALID,0.112112,VALID,23.361,VALID,149,VALID,0.904297,
2012-05-04, 00:55:04,VALID,1007.85,VALID,0,VALID,104,VALID,0.112112,VALID,23.3805,VALID,130,VALID,0.802344,
2012-05-04, 00:56:04,VALID,1007.85,VALID,0,VALID,104,VALID,0.112112,VALID,23.4017,VALID,120,VALID,0.625391,
2012-05-04, 00:57:04,VALID,1007.87,VALID,0,VALID,104,VALID,0,VALID,23.361,VALID,129,VALID,0.667969,
2012-05-04, 00:58:04,VALID,1007.87,VALID,0,VALID,104,VALID,0.112112,VALID,23.3805,VALID,129,VALID,0.00195313,
2012-05-04, 00:59:04,VALID,1007.92,VALID,0,VALID,104,VALID,0.112112,VALID,23.4017,VALID,128,VALID,0.402344,
2012-05-04, 01:00:04,VALID,1007.89,VALID,0,VALID,104,VALID,0.112112,VALID,23.3823,VALID,106,VALID,0.368359,
2012-05-04, 01:01:04,VALID,1007.87,VALID,0,VALID,104,VALID,0.112112,VALID,23.4017,VALID,106,VALID,0.360938,
2012-05-04, 01:02:04,VALID,1007.86,VALID,0,VALID,104,VALID,0,VALID,23.4017,VALID,106,VALID,0.288672,
2012-05-04, 01:03:04,VALID,1007.89,VALID,0,VALID,104,VALID,0.112112,VALID,23.3805,VALID,106,VALID,0.585547,
2012-05-04, 01:04:04,VALID,1007.86,VALID,0,VALID,104,VALID,0.112112,VALID,23.3805,VALID,111,VALID,0.575,
2012-05-04, 01:05:04,VALID,1007.82,VALID,0,VALID,104,VALID,0.112112,VALID,23.3805,VALID,111,VALID,0.684375,
2012-05-04, 01:06:04,VALID,1007.83,VALID,0,VALID,104,VALID,0,VALID,23.3823,VALID,111,VALID,0.384766,
2012-05-04, 01:07:04,VALID,1007.83,VALID,0,VALID,104,VALID,0.112112,VALID,23.3823,VALID,129,VALID,0.760156,
2012-05-04, 01:08:04,VALID,1007.83,VALID,0,VALID,104,VALID,0,VALID,23.3823,VALID,134,VALID,0.522266,
2012-05-04, 01:09:04,VALID,1007.82,VALID,0,VALID,104,VALID,0.112112,VALID,23.361,VALID,133,VALID,0.462891,
2012-05-04, 01:10:04,VALID,1007.81,VALID,0,VALID,104,VALID,0.112112,VALID,23.3823,VALID,133,VALID,0.377344,
2012-05-04, 01:11:04,VALID,1007.81,VALID,0,VALID,104,VALID,0,VALID,23.3823,VALID,133,VALID,0.336719,
2012-05-04, 01:12:04,VALID,1007.8,VALID,0,VALID,104,VALID,0,VALID,23.3823,VALID,133,VALID,0.0851562,
2012-05-04, 01:13:04,VALID,1007.79,VALID,0,VALID,104,VALID,0,VALID,23.361,VALID,133,VALID,0.385938,
2012-05-04, 01:14:04,VALID,1007.8,VALID,0,VALID,104,VALID,0,VALID,23.3805,VALID,99,VALID,0.709375,
2012-05-04, 01:15:04,VALID,1007.82,VALID,0,VALID,104,VALID,0.112112,VALID,23.3805,VALID,114,VALID,0.644922,
2012-05-04, 01:16:04,VALID,1007.85,VALID,0,VALID,104,VALID,0.112112,VALID,23.4212,VALID,123,VALID,0.542188,
2012-05-04, 01:17:04,VALID,1007.82,VALID,0,VALID,104,VALID,0.112112,VALID,23.4407,VALID,123,VALID,0.861719,
2012-05-04, 01:18:04,VALID,1007.87,VALID,0,VALID,104,VALID,0,VALID,23.4194,VALID,118,VALID,0.676953,
2012-05-04, 01:19:04,VALID,1007.81,VALID,0,VALID,104,VALID,0.112112,VALID,23.4212,VALID,116,VALID,0.588672,
2012-05-04, 01:20:04,VALID,1007.85,VALID,0,VALID,104,VALID,0.112112,VALID,23.4389,VALID,116,VALID,0.585547,
2012-05-04, 01:21:04,VALID,1007.82,VALID,0,VALID,104,VALID,0.112112,VALID,23.4194,VALID,116,VALID,0.879687,
2012-05-04, 01:22:04,VALID,1007.82,VALID,0,VALID,104,VALID,0.112112,VALID,23.4602,VALID,117,VALID,0.945313,
2012-05-04, 01:23:04,VALID,1007.82,VALID,0,VALID,104,VALID,0,VALID,23.4407,VALID,114,VALID,0.826563,
2012-05-04, 01:24:04,VALID,1007.8,VALID,0,VALID,104,VALID,0,VALID,23.4602,VALID,114,VALID,0.411719,
2012-05-04, 01:25:04,VALID,1007.78,VALID,0,VALID,104,VALID,0.112112,VALID,23.4389,VALID,114,VALID,0.698438,
2012-05-04, 01:26:04,VALID,1007.8,VALID,0,VALID,104,VALID,0.112112,VALID,23.4602,VALID,121,VALID,0.834375,
2012-05-04, 01:27:04,VALID,1007.82,VALID,0,VALID,104,VALID,0,VALID,23.4602,VALID,124,VALID,0.912891,
2012-05-04, 01:28:04,VALID,1007.81,VALID,0,VALID,104,VALID,0.112112,VALID,23.4602,VALID,114,VALID,0.490234,
2012-05-04, 01:29:04,VALID,1007.78,VALID,0,VALID,104,VALID,0,VALID,23.4389,VALID,114,VALID,0.592969,
2012-05-04, 01:30:04,VALID,1007.81,VALID,0,VALID,104,VALID,0.112112,VALID,23.4389,VALID,115,VALID,0.660547,
2012-05-04, 01:31:04,VALID,1007.81,VALID,0,VALID,104,VALID,0,VALID,23.4602,VALID,115,VALID,0.405078,
2012-05-04, 01:32:04,VALID,1007.82,VALID,0,VALID,104,VALID,0,VALID,23.4389,VALID,115,VALID,0.523047,
2012-05-04, 01:33:04,VALID,1007.79,VALID,0,VALID,104,VALID,0.112112,VALID,23.4602,VALID,115,VALID,0.208203,
2012-05-04, 01:34:04,VALID,1007.81,VALID,0,VALID,104,VALID,0.112112,VALID,23.4389,VALID,115,VALID,0.48125,
2012-05-04, 01:35:04,VALID,1007.8,VALID,0,VALID,104,VALID,0.112112,VALID,23.4602,VALID,115,VALID,0.371094,
2012-05-04, 01:36:04,VALID,1007.78,VALID,0,VALID,104,VALID,0.112112,VALID,23.4194,VALID,115,VALID,0.480078,
2012-05-04, 01:37:04,VALID,1007.75,VALID,0,VALID,104,VALID,0,VALID,23.4602,VALID,126,VALID,0.839844,
2012-05-04, 01:38:04,VALID,1007.78,VALID,0,VALID,104,VALID,0,VALID,23.4407,VALID,123,VALID,0.607422,
2012-05-04, 01:39:04,VALID,1007.8,VALID,0,VALID,104,VALID,0,VALID,23.4602,VALID,126,VALID,0.802344,
2012-05-04, 01:40:04,VALID,1007.75,VALID,0,VALID,104,VALID,0,VALID,23.4602,VALID,125,VALID,0.797656,
2012-05-04, 01:41:04,VALID,1007.75,VALID,0,VALID,104,VALID,0,VALID,23.4407,VALID,126,VALID,0.0675781,
2012-05-04, 01:42:04,VALID,1007.77,VALID,0,VALID,104,VALID,0,VALID,23.4194,VALID,84,VALID,0.914063,
2012-05-04, 01:43:04,VALID,1007.78,VALID,0,VALID,104,VALID,0,VALID,23.4389,VALID,100,VALID,0.735156,
2012-05-04, 01:44:04,VALID,1007.76,VALID,0,VALID,104,VALID,0,VALID,23.4602,VALID,118,VALID,0.470313,
2012-05-04, 01:45:04,VALID,1007.73,VALID,0,VALID,104,VALID,0,VALID,23.4602,VALID,118,VALID,0.414844,
2012-05-04, 01:46:04,VALID,1007.75,VALID,0,VALID,104,VALID,0,VALID,23.4407,VALID,118,VALID,0.80625,
2012-05-04, 01:47:04,VALID,1007.74,VALID,0,VALID,104,VALID,0,VALID,23.4602,VALID,122,VALID,1.1082,
2012-05-04, 01:48:04,VALID,1007.72,VALID,0,VALID,104,VALID,0,VALID,23.4602,VALID,116,VALID,0.815625,
2012-05-04, 01:49:04,VALID,1007.72,VALID,0,VALID,104,VALID,0,VALID,23.4407,VALID,114,VALID,1.12266,
2012-05-04, 01:50:04,VALID,1007.7,VALID,0,VALID,104,VALID,0,VALID,23.4194,VALID,111,VALID,1.23398,
2012-05-04, 01:51:04,VALID,1007.69,VALID,0,VALID,104,VALID,0,VALID,23.4212,VALID,122,VALID,0.958594,
2012-05-04, 01:52:04,VALID,1007.69,VALID,0,VALID,104,VALID,0,VALID,23.4212,VALID,114,VALID,0.898438,
2012-05-04, 01:53:04,VALID,1007.68,VALID,0,VALID,104,VALID,0,VALID,23.4212,VALID,127,VALID,1.15703,
2012-05-04, 01:54:04,VALID,1007.72,VALID,0,VALID,104,VALID,0,VALID,23.4017,VALID,120,VALID,0.942969,
2012-05-04, 01:55:04,VALID,1007.71,VALID,0,VALID,104,VALID,0,VALID,23.4017,VALID,114,VALID,0.640234,
2012-05-04, 01:56:04,VALID,1007.71,VALID,0,VALID,104,VALID,0,VALID,23.4017,VALID,105,VALID,0.745313,
2012-05-04, 01:57:04,VALID,1007.72,VALID,0,VALID,104,VALID,0,VALID,23.3823,VALID,108,VALID,0.675781,
2012-05-04, 01:58:04,VALID,1007.74,VALID,0,VALID,104,VALID,0,VALID,23.3805,VALID,109,VALID,0.361719,
2012-05-04, 01:59:04,VALID,1007.73,VALID,0,VALID,104,VALID,0,VALID,23.361,VALID,124,VALID,0.875391,
2012-05-04, 02:00:04,VALID,1007.75,VALID,0,VALID,104,VALID,0,VALID,23.3823,VALID,119,VALID,0.604297,
2012-05-04, 02:01:04,VALID,1007.74,VALID,0,VALID,104,VALID,0,VALID,23.3415,VALID,132,VALID,0.542578,
2012-05-04, 02:02:04,VALID,1007.75,VALID,0,VALID,104,VALID,0,VALID,23.3628,VALID,132,VALID,1.11602,
2012-05-04, 02:03:04,VALID,1007.79,VALID,0,VALID,104,VALID,0,VALID,23.3415,VALID,127,VALID,0.728125,
2012-05-04, 02:04:04,VALID,1007.75,VALID,0,VALID,104,VALID,0.112112,VALID,23.3628,VALID,126,VALID,0.625391,
2012-05-04, 02:05:04,VALID,1007.76,VALID,0,VALID,104,VALID,0,VALID,23.3415,VALID,114,VALID,0.748047,
2012-05-04, 02:06:04,VALID,1007.77,VALID,0,VALID,104,VALID,0,VALID,23.3433,VALID,112,VALID,0.866016,
2012-05-04, 02:07:04,VALID,1007.79,VALID,0,VALID,104,VALID,0,VALID,23.3433,VALID,129,VALID,0.782031,
2012-05-04, 02:08:04,VALID,1007.78,VALID,0,VALID,104,VALID,0,VALID,23.322,VALID,129,VALID,0.759375,
2012-05-04, 02:09:04,VALID,1007.8,VALID,0,VALID,104,VALID,0,VALID,23.3433,VALID,112,VALID,1.02539,
2012-05-04, 02:10:04,VALID,1007.81,VALID,0,VALID,104,VALID,0,VALID,23.3433,VALID,108,VALID,0.258984,
2012-05-04, 02:11:04,VALID,1007.79,VALID,0,VALID,104,VALID,0,VALID,23.3433,VALID,87,VALID,0.655078,
2012-05-04, 02:12:04,VALID,1007.81,VALID,0,VALID,104,VALID,0,VALID,23.3415,VALID,80,VALID,0.614453,
2012-05-04, 02:13:04,VALID,1007.83,VALID,0,VALID,104,VALID,0.112112,VALID,23.322,VALID,93,VALID,0.296484,
2012-05-04, 02:14:04,VALID,1007.81,VALID,0,VALID,104,VALID,0,VALID,23.3415,VALID,93,VALID,0.292578,
2012-05-04, 02:15:04,VALID,1007.81,VALID,0,VALID,104,VALID,0.112112,VALID,23.3628,VALID,151,VALID,0.817578,
2012-05-04, 02:16:04,VALID,1007.78,VALID,0,VALID,104,VALID,0.112112,VALID,23.322,VALID,131,VALID,1.17266,
2012-05-04, 02:17:04,VALID,1007.81,VALID,0,VALID,104,VALID,0,VALID,23.3238,VALID,126,VALID,0.715625,
2012-05-04, 02:18:04,VALID,1007.79,VALID,0,VALID,104,VALID,0,VALID,23.322,VALID,117,VALID,0.889063,
2012-05-04, 02:19:04,VALID,1007.78,VALID,0,VALID,104,VALID,0,VALID,23.3026,VALID,114,VALID,0.703516,
2012-05-04, 02:20:04,VALID,1007.82,VALID,0,VALID,104,VALID,0,VALID,23.3026,VALID,132,VALID,0.973047,
2012-05-04, 02:21:04,VALID,1007.8,VALID,0,VALID,104,VALID,0,VALID,23.322,VALID,131,VALID,0.483984,
2012-05-04, 02:22:04,VALID,1007.83,VALID,0,VALID,104,VALID,0.112112,VALID,23.322,VALID,130,VALID,0.266016,
2012-05-04, 02:23:04,VALID,1007.84,VALID,0,VALID,104,VALID,0.112112,VALID,23.322,VALID,122,VALID,0.708594,
2012-05-04, 02:24:04,VALID,1007.83,VALID,0,VALID,104,VALID,0,VALID,23.3433,VALID,115,VALID,0.958594,
2012-05-04, 02:25:04,VALID,1007.85,VALID,0,VALID,104,VALID,0,VALID,23.3433,VALID,118,VALID,0.811328,
2012-05-04, 02:26:04,VALID,1007.86,VALID,0,VALID,104,VALID,0.112112,VALID,23.3433,VALID,117,VALID,0.580469,
2012-05-04, 02:27:04,VALID,1007.81,VALID,0,VALID,104,VALID,0.112112,VALID,23.322,VALID,108,VALID,0.548828,
2012-05-04, 02:28:04,VALID,1007.82,VALID,0,VALID,104,VALID,0.112112,VALID,23.3433,VALID,87,VALID,0.426562,
2012-05-04, 02:29:04,VALID,1007.81,VALID,0,VALID,104,VALID,0,VALID,23.3415,VALID,84,VALID,0.860547,
2012-05-04, 02:30:04,VALID,1007.83,VALID,0,VALID,104,VALID,0.112112,VALID,23.3433,VALID,79,VALID,0.876953,
2012-05-04, 02:31:04,VALID,1007.83,VALID,0,VALID,104,VALID,0.112112,VALID,23.3415,VALID,95,VALID,0.802344,
2012-05-04, 02:32:04,VALID,1007.83,VALID,0,VALID,104,VALID,0,VALID,23.3433,VALID,118,VALID,0.738281,
2012-05-04, 02:33:04,VALID,1007.84,VALID,0,VALID,104,VALID,0,VALID,23.361,VALID,115,VALID,1.15391,
2012-05-04, 02:34:04,VALID,1007.84,VALID,0,VALID,104,VALID,0.112112,VALID,23.3433,VALID,115,VALID,0.758594,
2012-05-04, 02:35:04,VALID,1007.83,VALID,0,VALID,104,VALID,0.112112,VALID,23.3433,VALID,112,VALID,0.663672,
2012-05-04, 02:36:04,VALID,1007.83,VALID,0,VALID,104,VALID,0.112112,VALID,23.3415,VALID,113,VALID,0.746094,
2012-05-04, 02:37:04,VALID,1007.82,VALID,0,VALID,104,VALID,0,VALID,23.3628,VALID,101,VALID,0.764063,
2012-05-04, 02:38:04,VALID,1007.82,VALID,0,VALID,104,VALID,0,VALID,23.3433,VALID,106,VALID,0.871094,
2012-05-04, 02:39:04,VALID,1007.81,VALID,0,VALID,104,VALID,0,VALID,23.3415,VALID,122,VALID,0.628125,
2012-05-04, 02:40:04,VALID,1007.81,VALID,0,VALID,104,VALID,0,VALID,23.3628,VALID,99,VALID,0.652734,
2012-05-04, 02:41:04,VALID,1007.84,VALID,0,VALID,104,VALID,0,VALID,23.3415,VALID,124,VALID,0.883594,
2012-05-04, 02:42:04,VALID,1007.86,VALID,0,VALID,104,VALID,0,VALID,23.3628,VALID,108,VALID,0.514844,
2012-05-04, 02:43:04,VALID,1007.85,VALID,0,VALID,104,VALID,0,VALID,23.3628,VALID,109,VALID,0.684766,
2012-05-04, 02:44:04,VALID,1007.84,VALID,0,VALID,104,VALID,0,VALID,23.3628,VALID,108,VALID,0.712891,
2012-05-04, 02:45:04,VALID,1007.84,VALID,0,VALID,104,VALID,0,VALID,23.3628,VALID,119,VALID,1.3832,
2012-05-04, 02:46:04,VALID,1007.8,VALID,0,VALID,104,VALID,0,VALID,23.3628,VALID,130,VALID,1.21563,
2012-05-04, 02:47:04,VALID,1007.78,VALID,0,VALID,104,VALID,0,VALID,23.3628,VALID,130,VALID,1.15898,
2012-05-04, 02:48:04,VALID,1007.77,VALID,0,VALID,104,VALID,0,VALID,23.3415,VALID,146,VALID,0.806641,
2012-05-04, 02:49:04,VALID,1007.74,VALID,0,VALID,104,VALID,0,VALID,23.3628,VALID,113,VALID,0.81875,
2012-05-04, 02:50:04,VALID,1007.7,VALID,0,VALID,104,VALID,0,VALID,23.322,VALID,118,VALID,0.852344,
2012-05-04, 02:51:04,VALID,1007.71,VALID,0,VALID,104,VALID,0,VALID,23.3645,VALID,99,VALID,0.359766,
2012-05-04, 02:52:04,VALID,1007.72,VALID,0,VALID,104,VALID,0,VALID,23.3433,VALID,98,VALID,0.587891,
2012-05-04, 02:53:04,VALID,1007.72,VALID,0,VALID,104,VALID,0,VALID,23.3433,VALID,92,VALID,0.425781,
2012-05-04, 02:54:04,VALID,1007.75,VALID,0,VALID,104,VALID,0,VALID,23.322,VALID,97,VALID,0.448047,
2012-05-04, 02:55:04,VALID,1007.73,VALID,0,VALID,104,VALID,0,VALID,23.3433,VALID,97,VALID,0.383984,
2012-05-04, 02:56:04,VALID,1007.76,VALID,0,VALID,104,VALID,0,VALID,23.3433,VALID,93,VALID,0.883594,
2012-05-04, 02:57:04,VALID,1007.73,VALID,0,VALID,104,VALID,0,VALID,23.3433,VALID,107,VALID,0.79375,
2012-05-04, 02:58:04,VALID,1007.75,VALID,0,VALID,104,VALID,0,VALID,23.3628,VALID,71,VALID,0.78125,
2012-05-04, 02:59:04,VALID,1007.76,VALID,0,VALID,104,VALID,0,VALID,23.3433,VALID,95,VALID,0.604297,
2012-05-04, 03:00:04,VALID,1007.73,VALID,0,VALID,104,VALID,0,VALID,23.3628,VALID,97,VALID,0.447266,
2012-05-04, 03:01:04,VALID,1007.75,VALID,0,VALID,104,VALID,0,VALID,23.3823,VALID,106,VALID,0.51875,
2012-05-04, 03:02:04,VALID,1007.73,VALID,0,VALID,104,VALID,0,VALID,23.361,VALID,109,VALID,0.6,
2012-05-04, 03:03:04,VALID,1007.7,VALID,0,VALID,104,VALID,0,VALID,23.3823,VALID,72,VALID,0.854297,
2012-05-04, 03:04:04,VALID,1007.73,VALID,0,VALID,104,VALID,0,VALID,23.361,VALID,131,VALID,0.509766,
2012-05-04, 03:05:04,VALID,1007.67,VALID,0,VALID,104,VALID,0,VALID,23.3628,VALID,115,VALID,0.598047,
2012-05-04, 03:06:04,VALID,1007.71,VALID,0,VALID,104,VALID,0,VALID,23.361,VALID,103,VALID,0.910547,
2012-05-04, 03:07:04,VALID,1007.67,VALID,0,VALID,104,VALID,0,VALID,23.3628,VALID,99,VALID,1.03516,
2012-05-04, 03:08:04,VALID,1007.68,VALID,0,VALID,104,VALID,0,VALID,23.3415,VALID,99,VALID,1.15937,
2012-05-04, 03:09:04,VALID,1007.67,VALID,0,VALID,104,VALID,0,VALID,23.3628,VALID,109,VALID,1.39336,
2012-05-04, 03:10:04,VALID,1007.66,VALID,0,VALID,104,VALID,0,VALID,23.3628,VALID,89,VALID,1.28867,
2012-05-04, 03:11:04,VALID,1007.64,VALID,0,VALID,104,VALID,0,VALID,23.3628,VALID,83,VALID,1.26094,
2012-05-04, 03:12:04,VALID,1007.64,VALID,0,VALID,104,VALID,0,VALID,23.3433,VALID,101,VALID,1.2,
2012-05-04, 03:13:04,VALID,1007.61,VALID,0,VALID,104,VALID,0,VALID,23.3823,VALID,90,VALID,0.854688,
2012-05-04, 03:14:04,VALID,1007.6,VALID,0,VALID,104,VALID,0,VALID,23.3628,VALID,113,VALID,0.957422,
2012-05-04, 03:15:04,VALID,1007.57,VALID,0,VALID,104,VALID,0,VALID,23.3823,VALID,87,VALID,0.969922,
2012-05-04, 03:16:04,VALID,1007.57,VALID,0,VALID,104,VALID,0,VALID,23.3628,VALID,108,VALID,0.671484,
2012-05-04, 03:17:04,VALID,1007.54,VALID,0,VALID,104,VALID,0,VALID,23.3823,VALID,107,VALID,1.05742,
2012-05-04, 03:18:04,VALID,1007.55,VALID,0,VALID,104,VALID,0,VALID,23.3628,VALID,130,VALID,1.3,
2012-05-04, 03:19:04,VALID,1007.54,VALID,0,VALID,104,VALID,0,VALID,23.361,VALID,113,VALID,0.728906,
2012-05-04, 03:20:04,VALID,1007.53,VALID,0,VALID,104,VALID,0,VALID,23.3415,VALID,115,VALID,1.01289,
2012-05-04, 03:21:04,VALID,1007.54,VALID,0,VALID,104,VALID,0,VALID,23.3415,VALID,104,VALID,1.0832,
2012-05-04, 03:22:04,VALID,1007.57,VALID,0,VALID,104,VALID,0,VALID,23.3628,VALID,109,VALID,0.646094,
2012-05-04, 03:23:04,VALID,1007.57,VALID,0,VALID,104,VALID,0,VALID,23.361,VALID,108,VALID,0.436719,
2012-05-04, 03:24:04,VALID,1007.54,VALID,0,VALID,104,VALID,0,VALID,23.3823,VALID,90,VALID,0.839453,
2012-05-04, 03:25:04,VALID,1007.52,VALID,0,VALID,104,VALID,0,VALID,23.361,VALID,81,VALID,0.847656,
2012-05-04, 03:26:04,VALID,1007.52,VALID,0,VALID,104,VALID,0,VALID,23.3823,VALID,82,VALID,1.04258,
2012-05-04, 03:27:04,VALID,1007.53,VALID,0,VALID,104,VALID,0,VALID,23.3415,VALID,79,VALID,1.05938,
2012-05-04, 03:28:04,VALID,1007.5,VALID,0,VALID,104,VALID,0,VALID,23.361,VALID,83,VALID,0.3125,
2012-05-04, 03:29:04,VALID,1007.47,VALID,0,VALID,104,VALID,0,VALID,23.361,VALID,87,VALID,0.847266,
2012-05-04, 03:30:04,VALID,1007.48,VALID,0,VALID,104,VALID,0,VALID,23.3415,VALID,91,VALID,1.57969,
2012-05-04, 03:31:04,VALID,1007.46,VALID,0,VALID,104,VALID,0,VALID,23.322,VALID,85,VALID,1.36992,
2012-05-04, 03:32:04,VALID,1007.49,VALID,0,VALID,104,VALID,0.112112,VALID,23.3433,VALID,99,VALID,0.642187,
2012-05-04, 03:33:04,VALID,1007.47,VALID,0,VALID,104,VALID,0,VALID,23.3628,VALID,98,VALID,0.974219,
2012-05-04, 03:34:04,VALID,1007.49,VALID,0,VALID,104,VALID,0,VALID,23.3433,VALID,89,VALID,1.22773,
2012-05-04, 03:35:04,VALID,1007.5,VALID,0,VALID,104,VALID,0,VALID,23.3628,VALID,97,VALID,0.884375,
2012-05-04, 03:36:04,VALID,1007.54,VALID,0,VALID,104,VALID,0.112112,VALID,23.3433,VALID,118,VALID,0.965625,
2012-05-04, 03:37:04,VALID,1007.57,VALID,0,VALID,104,VALID,0.112112,VALID,23.3415,VALID,98,VALID,0.840234,
2012-05-04, 03:38:04,VALID,1007.58,VALID,0,VALID,104,VALID,0,VALID,23.3415,VALID,94,VALID,0.74375,
2012-05-04, 03:39:04,VALID,1007.59,VALID,0,VALID,104,VALID,0.112112,VALID,23.3415,VALID,96,VALID,0.916797,
2012-05-04, 03:40:04,VALID,1007.59,VALID,0,VALID,104,VALID,0,VALID,23.361,VALID,104,VALID,1.19531,
2012-05-04, 03:41:04,VALID,1007.61,VALID,0,VALID,104,VALID,0,VALID,23.361,VALID,61,VALID,1.21172,
2012-05-04, 03:42:04,VALID,1007.6,VALID,0,VALID,104,VALID,0.112112,VALID,23.3415,VALID,94,VALID,0.982031,
2012-05-04, 03:43:04,VALID,1007.59,VALID,0,VALID,104,VALID,0,VALID,23.361,VALID,80,VALID,1.06484,
2012-05-04, 03:44:04,VALID,1007.59,VALID,0,VALID,104,VALID,0,VALID,23.361,VALID,88,VALID,1.36406,
2012-05-04, 03:45:04,VALID,1007.61,VALID,0,VALID,104,VALID,0.112112,VALID,23.361,VALID,80,VALID,1.25742,
2012-05-04, 03:46:04,VALID,1007.61,VALID,0,VALID,104,VALID,0.112112,VALID,23.361,VALID,81,VALID,0.732031,
2012-05-04, 03:47:04,VALID,1007.6,VALID,0,VALID,104,VALID,0.112112,VALID,23.361,VALID,74,VALID,1.49336,
2012-05-04, 03:48:04,VALID,1007.63,VALID,0,VALID,104,VALID,0.112112,VALID,23.361,VALID,76,VALID,0.851953,
2012-05-04, 03:49:04,VALID,1007.61,VALID,0,VALID,104,VALID,0,VALID,23.3415,VALID,71,VALID,1.22187,